Other Public Products
Issued by NWS Grand Forks, ND

Home | Current Version | Previous Version | Text Only | Print | Product List | Glossary On
Versions: 1 2 3 4 5 6 7 8 9 10 11 12 13 14 15 16 17 18 19 20 21 22 23 24 25 26 27 28 29 30 31 32 33 34 35 36 37 38 39 40 41 42 43 44 45 46 47 48 49 50
000
FPUS83 KFGF 011731
OPUFGF
PRAIRIE TO PINES WEATHER ROUNDUP
NATIONAL WEATHER SERVICE EASTERN NORTH DAKOTA/GRAND FORKS ND
1200 PM CDT SAT OCT 01 2016

 **SATELLITE DATA USED TO AUGMENT SKY COVER AT AUTOMATED STATIONS**
 *****  WEATHER ACROSS EASTERN NORTH DAKOTA  *****

CITY           SKY/WX    TMP DP  RH WIND       PRES   REMARKS
GRAND FORKS    CLOUDY    60  51  72 SE6       30.13F
GRAND FORKS AF CLOUDY    61  52  72 SE6       30.13F
GRAND CITY NWS   N/A     61 N/A N/A SE2         N/A
BUXTON           N/A     66  62  86 SE6         N/A
DEVILS LAKE    SUNNY     64  51  62 SE13      30.10S
FARGO          SUNNY     65  53  65 SE10      30.13F
WAHPETON ARPT  MOSUNNY   64  50  59 SE8       30.14F
$$

 *****  WEATHER ACROSS CENTRAL AND WESTERN NORTH DAKOTA  *****

CITY           SKY/WX    TMP DP  RH WIND       PRES   REMARKS
JAMESTOWN      SUNNY     67  50  54 S14G23    30.08F
BISMARCK       SUNNY     67  49  52 SE14      30.01F
MINOT          SUNNY     65  50  58 E7        29.99F
MINOT AFB      SUNNY     64  50  59 S8        29.99F
GARRISON         N/A     65  49  56 SE8       29.99F
WILLISTON      SUNNY     63  50  62 CALM      29.97F
DICKINSON      SUNNY     67  50  54 E5        29.96F
HETTINGER      SUNNY     69  51  52 SE7       29.99F
$$

 *****  OTHER OBSERVATIONS NORTHEAST NORTH DAKOTA  *****

CITY           SKY/WX    TMP DP  RH WIND       PRES   REMARKS
WALHALLA       FAIR      63  59  88 SE10      30.12F
LANGDON        FAIR      64  52  63 SE15      30.11F
CAVALIER       FAIR      63  54  72 S7        30.13S
GRAFTON        FAIR      61  54  77 SE9       30.15F
CANDO          FAIR      66  50  55 SE15G22   30.10S
FORT TOTTEN      N/A     66  53  62 S10       29.95S
ROLLA            N/A     66  48  52 S14G24    30.08S
RUGBY          FAIR      68  48  49 SE12G21   30.03F
 ***** THE ABOVE OBSERVATIONS ARE NON NWS ARE NOT QUALITY
        CONTROLLED AND MAY MIS-REPORT RAIN FOR SNOW...
$$

 *****  OTHER OBSERVATIONS SOUTHEAST NORTH DAKOTA *****

CITY           SKY/WX    TMP DP  RH WIND       PRES   REMARKS
COOPERSTOWN    FAIR      70  52  52 S14G20    30.11F
VALLEY CITY    FAIR      68  54  60 S14G20    30.12F
OAKES          NOT AVBL
GWINNER        FAIR      68  54  60 E10       30.12S
SHEYENNE NWR     N/A     62  53  71 SE8       29.95S
BUFFALO          N/A     69  45  41 S9          N/A
WYNDMERE         N/A     66  54  63 SE7         N/A
 ***** THE ABOVE OBSERVATIONS ARE NON NWS ARE NOT QUALITY
       CONTROLLED AND MAY MIS-REPORT RAIN FOR SNOW...
$$

  *****  WEATHER ACROSS NORTHERN MINNESOTA  *****

CITY           SKY/WX    TMP DP  RH WIND       PRES   REMARKS
FLAG ISLAND    CLOUDY    57  50  77 SE3       30.18F
WARROAD        MOSUNNY   55  52  88 NE3       30.19S
ROSEAU         MOSUNNY   61  54  77 CALM      30.18S
HALLOCK        SUNNY     64  55  72 S12       30.14F
THF RVR FALLS  CLOUDY    60  52  74 SE3       30.17F
HALSTAD          N/A     67  54  62 SE8         N/A
FOSSTON        MOSUNNY   70  50  49 CALM      30.17S
BAUDETTE       MOSUNNY   58  51  78 SE5       30.20F
WASKISH        MOSUNNY   55  55 100 E5        30.19F
CROOKSTON      CLOUDY    64  54  68 S6        30.15F
$$
  *****  WEATHER ACROSS CENTRAL AND WEST MINNESOTA  *****

CITY           SKY/WX    TMP DP  RH WIND       PRES   REMARKS
BEMIDJI        CLOUDY    55  52  90 S6        30.19F
PARK RAPIDS    CLOUDY    56  51  84 CALM      30.19F
WADENA         PTSUNNY   57  54  88 CALM      30.17F
DETROIT LAKES  SUNNY     59  54  82 SE8       30.17F
MOORHEAD       CLOUDY    66  54  63 SE10      30.14F
FERGUS FALLS   CLOUDY    64  54  68 SE8       30.16F
ELBOW LAKE     FAIR      66  55  67 SE5       30.15F
MORRIS MN      PTSUNNY   68  55  64 E8        30.14F
STAPLES        SUNNY     61  52  72 CALM      30.18F
WHEATON        SUNNY     70  55  60 SE6       30.16F
$$
  *****  WEATHER ELSEWHERE ACROSS MINNESOTA  *****

CITY           SKY/WX    TMP DP  RH WIND       PRES   REMARKS
DULUTH         CLOUDY    62  53  72 E10       30.20F
INTRNTL FALLS  CLOUDY    64  51  62 SE5       30.20F
ELY            MOSUNNY   66  46  48 E6        30.21F
CLOQUET        PTSUNNY   63  52  67 SE7       30.19F
BRAINERD       SUNNY     61  52  72 N5        30.19F
HIBBING        CLOUDY    56  50  80 SE3       30.21F
ALEXANDRIA     MOSUNNY   59  55  87 VRB3      30.18F FOG
SAINT CLOUD    SUNNY     62  54  74 E6        30.17F
MINNEAPOLIS    SUNNY     65  54  67 NE7G18    30.15F
$$

  *****  WEATHER ACROSS SOUTH DAKOTA  *****

CITY           SKY/WX    TMP DP  RH WIND       PRES   REMARKS
SIOUX FALLS    CLOUDY    67  57  70 SE5       30.14F
BROOKINGS      CLOUDY    66  54  65 SE7       30.13F
WATERTOWN      SUNNY     68  54  60 S12       30.12F
HURON          SUNNY     69  48  47 S16       30.09F
SISSETON         N/A     65  53  65 S10       30.12F
ABERDEEN       CLOUDY    74  46  36 S18G25    30.08F
MITCHELL       SUNNY     69  52  54 S14       30.11F
PIERRE         PTSUNNY   66  46  48 SE15      30.00F
MOBRIDGE       SUNNY     69  48  47 SE18      30.00S
RAPID CITY     SUNNY     74  52  46 VRB3      30.00F
$$

  *****  SOME WEATHER IN NEARBY STATES *****

CITY           SKY/WX    TMP DP  RH WIND       PRES   REMARKS
GLASGOW MT     SUNNY     65  51  60 E9G17     29.92F
GREAT FALLS MT CLOUDY    65  44  46 S8        29.91R
CHEYENNE WY    SUNNY     72  38  29 VRB7      30.17S
SCOTTSBLUFF NE SUNNY     66  48  52 CALM      30.07F
OMAHA NE       CLOUDY    64  55  72 N6        30.13F
DES MOINES IA  CLOUDY    64  57  78 N7        30.09F
DAVENPORT IA   CLOUDY    63  59  87 NE6       30.05F
CHICAGO IL     LGT RAIN  60  60 100 N8        30.00F
EAU CLAIRE WI  CLOUDY    65  53  65 NE9G20    30.14F
LA CROSSE WI   CLOUDY    65  57  75 NE10      30.11F
$$

  *****  SOME NATIONAL WEATHER *****

CITY           SKY/WX    TMP DP  RH WIND       PRES   REMARKS
LA GUARDIA NY  CLOUDY    63  57  81 NE16      30.20F
RALEIGH NC     PTSUNNY   79  59  50 SW13      30.06F
ATLANTA GA     MOSUNNY   76  50  40 NW10      30.11F
NEW ORLEANS LA MOSUNNY   83  58  42 NE9       30.08F
OKLAHOMA CITY  MOSUNNY   73  51  46 S7        30.11F
ALBUQUERQUE NM MOSUNNY   68  52  56 S3        30.25S
SALT LAKE CITY MOSUNNY   73  48  41 S20G25    30.05F
LOS ANGELES CA SUNNY     74  61  63 VRB5      30.01R
BOISE ID       MOSUNNY   66  30  26 NW17      30.02R
SEATTLE WA     PTSUNNY   56  45  66 S7        29.94S
$$

*** WEATHER ACROSS MANITOBA...SASKATCHEWAN AND ONTARIO ***
                ***ONTARIO***

CITY           SKY/WX    TMP DP  RH WIND       PRES   REMARKS
GERALDTON      MOSUNNY   66  45  45 E8        30.26F
THUNDER BAY    PTSUNNY   63  52  67 E5        30.23F
SIOUX LOOKOUT  PTSUNNY   63  48  59 S7        30.24F
TORONTO        CLOUDY    57  55  94 E12       30.12F
BIG TROUT LK   SUNNY     59  52  77 S8        30.19F
PICKLE LAKE    PTSUNNY   64  50  59 SW6       30.25F
DRYDEN         PTSUNNY   63  45  51 S7        30.22F
KENORA         PTSUNNY   57  50  77 S5        30.20F
$$
                *** MANITOBA***

CITY           SKY/WX    TMP DP  RH WIND       PRES   REMARKS
BRANDON        MOSUNNY   64  50  59 SE9       30.07F
DAUPHIN        SUNNY     68  54  60 E8        30.05F
ISLAND LAKE    MOSUNNY   59  52  77 S6        30.15R
PILOT MOUND      N/A     66  48  52 S17         N/A
THE PAS        DRZL/FOG  52  50  93 NE5       30.09S VSB 1
THOMPSON       CLOUDY    46  46 100 NE12      30.16R FOG
WINNIPEG       PTSUNNY   64  52  63 S10       30.13F
LYNN LAKE      CLOUDY    43  41  93 NE12G23   30.24R
CHURCHILL      LGT RAIN  41  39  93 E9        30.41R
GILLAM         CLOUDY    45  43  93 E9G18     30.21F
$$
                ***SASKATCHEWAN***

CITY           SKY/WX    TMP DP  RH WIND       PRES   REMARKS
ESTEVAN        MOSUNNY   63  52  67 E9        29.99F
KINDERSLEY     FOG       50  50 100 E18G26    29.93F VSB 1/2
LLOYDMINSTER   LGT RAIN  48  46  93 E8        30.04R
PRINCE ALBERT  CLOUDY    52  50  93 E14       30.06S
REGINA         MOSUNNY   63  50  63 E12       29.98F
YORKTON        SUNNY     63  52  67 SE8       30.03S  C1F1C2F2C3F3C4F4C5F5C6F6C7F7C8F8C9F9CaFaCbFbCcFcCdFdCe!



USA.gov is the U.S. government's official web portal to all federal, state and local government web resources and services.